Plymouth, NH

8:09 AM EST on January 23, 2018 (GMT -0500)
Plymouth

Weather History for K1P1 - April, 2014

Change the Weather History Date:

Sunday, April 13, 2014

  Actual Average (KLCI) Record (KLCI)
Temperature  
Mean Temperature 38 °F -  
Max Temperature 43 °F 52 °F 72 °F (1977)
Min Temperature 34 °F 30 °F 24 °F (1989)
Degree Days  
Heating Degree Days 26    
Moisture  
Dew Point 35 °F    
Average Humidity 87    
Maximum Humidity 98    
Minimum Humidity 77    
Precipitation  
Precipitation 0.17 in - - ()
Sea Level Pressure  
Sea Level Pressure 30.18 in    
Wind  
Wind Speed 1 mph (SE)    
Max Wind Speed 8 mph    
Max Gust Speed -    
Visibility 9 miles    
Events Rain    
Averages and records for this station are not official NWS values.
T = Trace of Precipitation, MM = Missing Value Source: NWS Daily Summary

Daily Weather History Graph

Daily Weather History Graph

Search for Another Location

Airport or City:

Trip Planner

Search our weather history database for the weather conditions in past years. The results will help you decide how hot, cold, wet, or windy it might be!

Date:

Astronomy

Apr. 13, 2014 Rise Set
Actual Time 6:07 AM EDT 7:28 PM EDT
Civil Twilight 5:37 AM EDT 7:58 PM EDT
Nautical Twilight 5:01 AM EDT 8:34 PM EDT
Astronomical Twilight 4:23 AM EDT 9:12 PM EDT
Moon 6:00 PM EDT (4/13) 5:08 AM EDT (4/13)
Length of Visible Light 14h 20m
Length of Day
13h 20m
Waxing Gibbous, 97% of the Moon is Illuminated
Apr 13
Waxing Gibbous
Apr 15
Full
Apr 22
Last Quarter
Apr 29
New
May 6
First Quarter

Hourly Weather History & Observations

Time (EDT) Temp. Windchill Dew Point Humidity Pressure Visibility Wind Dir Wind Speed Gust Speed Precip Events Conditions
12:15 AM 37.0 °F - 32.7 °F 84% 30.21 in 10.0 mi Calm Calm - N/A   Unknown
12:35 AM 37.4 °F - 32.2 °F 81% 30.22 in 10.0 mi Calm Calm - N/A   Unknown
12:55 AM 37.0 °F - 32.4 °F 83% 30.23 in 10.0 mi Calm Calm - N/A   Unknown
1:15 AM 37.4 °F - 32.7 °F 83% 30.24 in 10.0 mi Calm Calm - N/A   Unknown
1:35 AM 37.4 °F - 32.4 °F 82% 30.24 in 10.0 mi Calm Calm - N/A   Unknown
1:55 AM 37.4 °F - 32.7 °F 83% 30.23 in 10.0 mi Calm Calm - N/A   Unknown
2:15 AM 37.4 °F - 32.4 °F 82% 30.23 in 10.0 mi Calm Calm - N/A   Unknown
2:35 AM 37.0 °F - 32.5 °F 84% 30.22 in 10.0 mi Calm Calm - N/A   Unknown
2:55 AM 36.9 °F - 32.2 °F 83% 30.22 in 10.0 mi Calm Calm - N/A   Unknown
3:15 AM 37.4 °F - 32.4 °F 82% 30.23 in 10.0 mi Calm Calm - N/A   Unknown
3:35 AM 36.5 °F - 32.9 °F 87% 30.24 in 10.0 mi Calm Calm - N/A   Unknown
3:55 AM 36.5 °F - 32.4 °F 85% 30.24 in 10.0 mi Calm Calm - N/A   Unknown
4:15 AM 35.8 °F - 32.9 °F 89% 30.24 in 10.0 mi Calm Calm - N/A   Unknown
4:35 AM 36.1 °F - 32.4 °F 86% 30.23 in 10.0 mi Calm Calm - N/A   Unknown
4:55 AM 36.7 °F - 32.2 °F 84% 30.23 in 10.0 mi Calm Calm - N/A   Unknown
5:15 AM 35.8 °F - 32.2 °F 87% 30.23 in 10.0 mi Calm Calm - N/A   Unknown
5:35 AM 36.5 °F - 32.9 °F 87% 30.24 in 10.0 mi Calm Calm - N/A   Unknown
5:55 AM 36.0 °F - 32.7 °F 88% 30.23 in 10.0 mi Calm Calm - N/A   Unknown
6:15 AM 36.3 °F - 32.9 °F 87% 30.23 in 10.0 mi Calm Calm - N/A   Unknown
6:35 AM 36.7 °F - 32.4 °F 84% 30.22 in 10.0 mi Calm Calm - N/A   Unknown
6:55 AM 36.1 °F - 33.3 °F 89% 30.23 in 10.0 mi Calm Calm - N/A   Unknown
7:15 AM 37.0 °F - 33.4 °F 87% 30.24 in 10.0 mi Calm Calm - N/A   Unknown
7:35 AM 37.2 °F 34.7 °F 33.6 °F 87% 30.26 in 10.0 mi East 3.5 mph - N/A   Light Drizzle
7:55 AM 37.6 °F 34.0 °F 34.2 °F 87% 30.27 in 10.0 mi ESE 4.6 mph - N/A Rain Light Rain
8:15 AM 38.8 °F 34.6 °F 34.7 °F 85% 30.28 in 10.0 mi SE 5.8 mph - N/A Rain Light Rain
8:35 AM 39.4 °F - 35.2 °F 85% 30.29 in 10.0 mi Calm Calm - N/A Rain Light Rain
8:55 AM 38.3 °F 34.8 °F 36.5 °F 93% 30.29 in 3.0 mi East 4.6 mph - 0.01 in Rain Rain
9:15 AM 38.7 °F - 37.4 °F 95% 30.29 in 4.0 mi Calm Calm - 0.01 in Rain Rain
9:35 AM 38.7 °F - 37.6 °F 96% 30.31 in 2.5 mi Calm Calm - 0.04 in Rain Rain
9:55 AM 39.2 °F 37.0 °F 37.4 °F 93% 30.29 in 4.0 mi ENE 3.5 mph - 0.08 in Rain Rain
10:15 AM 38.8 °F - 37.4 °F 95% 30.29 in 4.0 mi Calm Calm - 0.01 in Rain Rain
10:35 AM 38.5 °F - 37.4 °F 96% 30.27 in 1.2 mi Calm Calm - 0.04 in Rain Heavy Rain
10:55 AM 38.8 °F - 37.8 °F 96% 30.25 in 3.0 mi Calm Calm - 0.07 in Rain Rain
11:15 AM 39.0 °F - 37.9 °F 96% 30.24 in 10.0 mi Calm Calm - 0.01 in   Light Drizzle
11:35 AM 39.4 °F 37.2 °F 37.8 °F 94% 30.24 in 10.0 mi South 3.5 mph - 0.01 in   Unknown
11:55 AM 39.7 °F - 37.8 °F 93% 30.23 in 10.0 mi Calm Calm - 0.01 in   Unknown
12:15 PM 39.7 °F - 37.6 °F 92% 30.23 in 10.0 mi Calm Calm - N/A   Unknown
12:35 PM 39.6 °F - 37.0 °F 91% 30.22 in 10.0 mi Calm Calm - N/A   Unknown
12:55 PM 39.6 °F 36.3 °F 36.9 °F 90% 30.21 in 10.0 mi SE 4.6 mph - N/A   Unknown
1:15 PM 39.7 °F - 36.9 °F 89% 30.21 in 10.0 mi Calm Calm - N/A   Unknown
1:35 PM 40.3 °F 36.3 °F 36.9 °F 88% 30.21 in 10.0 mi SE 5.8 mph - N/A   Unknown
1:55 PM 40.5 °F 36.5 °F 36.9 °F 87% 30.21 in 10.0 mi SE 5.8 mph - N/A   Unknown
2:15 PM 40.6 °F 36.7 °F 36.7 °F 86% 30.20 in 10.0 mi SE 5.8 mph - N/A   Unknown
2:35 PM 41.0 °F 38.0 °F 36.7 °F 85% 30.20 in 10.0 mi SE 4.6 mph - N/A   Unknown
2:55 PM 41.5 °F 36.4 °F 36.9 °F 83% 30.18 in 10.0 mi East 8.1 mph - N/A   Unknown
3:15 PM 41.5 °F 38.6 °F 36.5 °F 82% 30.15 in 10.0 mi ESE 4.6 mph - N/A   Unknown
3:35 PM 41.9 °F 38.2 °F 36.7 °F 82% 30.15 in 10.0 mi ESE 5.8 mph - N/A   Unknown
3:55 PM 42.1 °F 38.4 °F 36.5 °F 81% 30.14 in 10.0 mi ESE 5.8 mph - N/A   Unknown
4:15 PM 42.1 °F 39.2 °F 36.5 °F 81% 30.13 in 10.0 mi ESE 4.6 mph - N/A   Unknown
4:35 PM 42.4 °F 38.1 °F 36.7 °F 80% 30.12 in 10.0 mi SE 6.9 mph - N/A   Unknown
4:55 PM 42.6 °F 38.4 °F 36.7 °F 79% 30.11 in 10.0 mi SE 6.9 mph - N/A   Unknown
5:15 PM 43.7 °F 41.1 °F 36.9 °F 77% 30.10 in 10.0 mi SSE 4.6 mph - N/A   Unknown
5:35 PM 43.7 °F 39.1 °F 36.9 °F 77% 30.10 in 10.0 mi ESE 8.1 mph - N/A   Unknown
5:55 PM 43.2 °F 40.5 °F 36.5 °F 77% 30.09 in 10.0 mi SE 4.6 mph - N/A   Unknown
6:15 PM 43.0 °F 38.8 °F 36.7 °F 78% 30.09 in 10.0 mi SSE 6.9 mph - N/A   Unknown
6:35 PM 41.9 °F 39.0 °F 36.1 °F 80% 30.09 in 10.0 mi SSE 4.6 mph - N/A   Unknown
7:15 PM 41.0 °F 38.0 °F 36.3 °F 83% 30.08 in 10.0 mi ESE 4.6 mph - N/A   Unknown
7:35 PM 40.6 °F 37.5 °F 36.1 °F 84% 30.07 in 10.0 mi SE 4.6 mph - N/A   Unknown
7:55 PM 40.1 °F 38.0 °F 35.8 °F 85% 30.07 in 10.0 mi SSE 3.5 mph - N/A   Unknown
8:15 PM 39.2 °F 35.9 °F 35.6 °F 87% 30.07 in 10.0 mi SE 4.6 mph - N/A   Unknown
8:35 PM 39.2 °F 37.0 °F 35.6 °F 87% 30.07 in 10.0 mi SE 3.5 mph - N/A   Unknown
8:55 PM 38.7 °F - 35.4 °F 88% 30.07 in 10.0 mi Calm Calm - N/A   Unknown
9:15 PM 38.7 °F 36.3 °F 35.4 °F 88% 30.07 in 10.0 mi SE 3.5 mph - N/A   Unknown
9:35 PM 38.1 °F 35.7 °F 35.1 °F 89% 30.06 in 10.0 mi East 3.5 mph - N/A   Unknown
9:55 PM 37.6 °F 35.1 °F 35.1 °F 91% 30.06 in 10.0 mi East 3.5 mph - N/A   Unknown
10:15 PM 37.8 °F - 35.4 °F 91% 30.05 in 10.0 mi Calm Calm - N/A   Unknown
10:35 PM 36.5 °F - 34.3 °F 92% 30.05 in 10.0 mi Calm Calm - N/A   Unknown
11:15 PM 34.9 °F 32.0 °F 33.6 °F 95% 30.04 in 10.0 mi East 3.5 mph - N/A   Unknown
11:35 PM 34.0 °F 31.0 °F 33.1 °F 96% 30.03 in 7.0 mi East 3.5 mph - N/A   Unknown
11:55 PM 34.2 °F - 33.6 °F 98% 30.03 in 7.0 mi Calm Calm - N/A   Unknown